STARLINK-1460, 45676

Orbit data source: Space-Track

STARLINK-1460, 45676 is a payload satellite owned by SpaceX/Seattle (US) in LEO that was launched on Thu, 04 Jun 2020 UTC via an FALCON 9 launch vehicle from the Air Force Eastern Test Range (AFETR). Payload-class satellites include a variety of spacecraft equipped with specific instruments for various scientific and technological missions. These include communications satellites like Starlink; space stations such as the ISS; scientific satellites like the Hubble; Earth observation satellites from companies like Planet Labs, Umbra, and HawkEye 360; GPS; miniature CubeSats for education and research; and military/defense satellites.

Loading next visibility...
Identifier
45676, 2020-035V
Orbit
LEO
Country
Flag of USUS
Related business
Manufacturer
SpaceX/Seattle
Mission
Operational Commercial Communications
Bus & Motor
STARLINK, Unknown motor
Mass
260 kg wet, ~248 kg dry
Launch date (UTC)
2020-06-04 (6 years ago)
Launch vehicle
FALCON 9
Launch site
Air Force Eastern Test Range (AFETR)
Object type
Payload
Rocket body
Debris
Shape & HBR
Box + 1 Pan, 10.1 m
Radar Cross Section
13.562 m², Large (>1 m²)

Expand to show TLE details & history
Last TLE update: 6 hours ago

TLE from 6 hours ago
0 STARLINK-1460
1 45676U 20035V   26065.83334490  .00861536  00000-0  29737-1 0  9999
2 45676  53.1454  78.1449 0000738 101.8603 172.3623 15.27143826  5819
Epoch: 2026-03-06T20:00Z
TLE epoch observation values (Epoch: 2026-03-06T20:00:00.999Z)
Latitude
-53.09136°
Longitude
-109.41977°
Altitude
503.317 km
Speed
7.612 km/s
True Right ascension
23h 40m 35s
True Declination
-52° 55' 12"
Sunlit
Object was in daylight at epoch
Visualization orbit readout
Latitude
Unknown
Longitude
Unknown
Altitude
Unknown
Speed
Unknown
Apparent Right ascension
Unknown
Apparent Declination
Unknown
Sunlit
N/A
Visualization observer readout
Local Sidereal Time
06:16:30
Azimuth
Unknown
Elevation
Unknown
Doppler factor
Unknown
Orbital elements
Apogee altitude
485.12 km
Perigee altitude
484.107 km
Semi-major axis
6,862.751 km
Eccentricity
0.00007
Inclination
53.1454°
RAAN
78.1449°
Arg. of periapsis
101.8603°
True anomaly
172.36342°
Mean anomaly
172.3623°
Eccentric anomaly
172.36286°
Mean motion
3.81765 °/min
Orbital period
94.3 mins
BSTAR
0.029737
Loading maneuver chart data...
Computing Atmospheric mass density...
Loading historical data...
Loading historical data...
Loading historical data...
Loading historical data...
Loading historical data...
Loading historical data...
Loading historical data...

Documentation

Showing up to 5 results
|